Voltar ao catálogo

STARLINK-31889

AtivoComunicaçõesVLEO
NORAD 59847·PAYLOAD·🇺🇸 United States

Lançado May 23, 2024 de Cape Canaveral Space Force Station

Loading…

Próximas Passagens (próximas 24 horas)

TLE

AtualizadoSource: CelesTrak SupGP

Época: Sep 15, 2026, 02:59 UTC

1 59847C 24097N   26258.12479167  .00005607  00000+0  20308-3 0  2586
2 59847  43.0022 284.9546 0001301 266.2353  89.2167 15.27578331    12

Acompanhe STARLINK-31889 em tempo real com AllMySat

Download on the App Store